Find Starlink 33942

NORAD ID: 63974 Int'l Des: 2025-099 Owner: SPXS Country: US Constellation: starlink operational
LEOCIRCULAR

当前视图

正在加载3D地球...

About Starlink 33942

Starlink 33942 (NORAD 63974) is a starlink constellation satellite (v2 mini) launched May 13, 2025 by SPXS of US. It operates in LEO, CIRCULAR orbit with a mass of 575.00 kg.

关于 Starlink 33942

正在加载描述...

即将过境

Passes for default location (London). Set your location on the main map for personalized predictions.

高度历史

Loading altitude history...

两行轨道根数

1 63974U 25099Y 26193.37753655 .00005728 00000-0 21756-3 0 9992
2 63974 43.0016 188.7573 0001474 268.1649 91.9033 15.27573885 66442
Epoch: Jul 12, 2026 • Age: 45 hours

当前状态

高度 487.3 km
远地点 / 近地点 N/A
速度 7.62 km/s
星下点 -21.67°S, 124.45°E
发射日期 May 13, 2025
运行时间 1.1 years
类型 internet

技术详情

分类 Payload
质量 575.00 kg
干质量 530.00 kg
总质量 575.00 kg
长度 0.30 m
直径 4.10 m
跨度 29.00 m
形状 Box + pan
制造商 SPXS
平台类型 Starlink V2MO
阶段状态 In Orbit
所有者/国家 SPXS/US

Most Searched